Location: Sawmill Trailhead
(33.5800°N, 116.4497°W)
Time: 12:20:29
(UTC-07:00)

Uosat F - Visible Passes

Search period start: 20 June 2018 00:00
Search period end: 30 June 2018 00:00
Orbit: 751 x 760 km, 98.7° (Epoch: 19 June)

Date Brightness Start Highest point End Pass type
(mag) Time Alt. Az. Time Alt. Az. Time Alt. Az.
21 Jun 13.2 20:41:53 10° SSW 20:45:57 25° W 20:50:04 10° NW visible
23 Jun 13.7 21:02:53 10° SW 21:05:49 16° W 21:08:46 10° WNW visible
24 Jun 12.5 20:21:21 10° S 20:26:04 40° W 20:30:48 10° NNW visible
26 Jun 13.2 20:41:45 10° SSW 20:45:52 25° W 20:50:00 10° NW visible
28 Jun 13.7 21:02:42 10° SW 21:05:42 16° W 21:08:44 10° WNW visible
29 Jun 12.4 20:21:14 10° S 20:25:58 41° W 20:30:43 10° NNW visible
